NUDTSAT (42787 NORAD) Tracking and Keplerian Element Data

This shows tracking and keplerian element data for the satellite.

Feedback or suggestion? Click here.




ElementValue
Catalog42787
NameNUDTSAT
Epoch Orbit7790
Epoch Day322.8794367
Epoch Year2018
RAAN20.3613
Inclination97.3844
Eccentricity0.0010015
Argument of Perigee250.3024
Mean Anonmoly109.7132
Mean Motion15.22749322
Decay Rate1.422E-05
L11 42787U 17036Y 18322.87943670 .00001422 00000-0 63860-4 0 9991
L22 42787 97.3844 20.3613 0010015 250.3024 109.7132 15.22749322 77906

Live tracking and technical data element details for NUDTSAT (NORAD 42787). NUDTSAT can be tracked NOW for your location showing map with azimuth and elevation plus other details from your city location.

Track the satellite on the map from your city or location and see movement details for azimuth, elevation, latitude, longitude, range, height, and movement on the map or in text.







IsCatalogInMostPopularTable: catalog: 42787, numindb: 149
Update: records affected: 1



GetName: 42787 NUDTSAT

Hit Count: updated at: Mon, 19 Nov 2018 23:38:47 GMT